TimeCDT,TemperatureF,Dew PointF,Humidity,Sea Level PressureIn,VisibilityMPH,Wind Direction,Wind SpeedMPH,Gust SpeedMPH,PrecipitationIn,Events,Conditions,WindDirDegrees,DateUTC
12:15 AM,6.8,-0.4,72,30.16,10.0,Calm,Calm,-,N/A,,Mostly Cloudy,0,2014-03-26 05:15:00
12:35 AM,6.8,-0.4,72,30.16,10.0,WSW,3.5,-,N/A,,Mostly Cloudy,240,2014-03-26 05:35:00
12:55 AM,10.4,1.4,67,30.16,10.0,WSW,5.8,-,N/A,,Overcast,240,2014-03-26 05:55:00
1:15 AM,10.4,-0.4,62,30.16,10.0,SW,3.5,-,N/A,,Mostly Cloudy,230,2014-03-26 06:15:00
1:35 AM,8.6,-2.2,62,30.16,10.0,Calm,Calm,-,N/A,,Partly Cloudy,0,2014-03-26 06:35:00
1:55 AM,8.6,-0.4,67,30.15,10.0,WSW,4.6,-,N/A,,Clear,240,2014-03-26 06:55:00
2:15 AM,10.4,-0.4,62,30.17,10.0,West,4.6,-,N/A,,Clear,260,2014-03-26 07:15:00
2:35 AM,10.4,1.4,67,30.17,10.0,West,4.6,-,N/A,,Clear,260,2014-03-26 07:35:00
2:55 AM,10.4,1.4,67,30.17,10.0,West,4.6,-,N/A,,Clear,260,2014-03-26 07:55:00
3:15 AM,10.4,1.4,67,30.17,10.0,West,4.6,-,N/A,,Clear,260,2014-03-26 08:15:00
3:35 AM,10.4,1.4,67,30.17,10.0,West,4.6,-,N/A,,Clear,260,2014-03-26 08:35:00
3:55 AM,8.6,1.4,73,30.17,10.0,West,4.6,-,N/A,,Clear,260,2014-03-26 08:55:00
4:15 AM,8.6,-0.4,67,30.17,10.0,West,4.6,-,N/A,,Clear,260,2014-03-26 09:15:00
4:35 AM,8.6,1.4,73,30.16,10.0,West,3.5,-,N/A,,Clear,270,2014-03-26 09:35:00
4:55 AM,8.6,-0.4,67,30.17,10.0,West,4.6,-,N/A,,Clear,260,2014-03-26 09:55:00
5:15 AM,6.8,-0.4,72,30.17,10.0,West,3.5,-,N/A,,Clear,270,2014-03-26 10:15:00
5:35 AM,6.8,1.4,79,30.17,10.0,West,3.5,-,N/A,,Clear,260,2014-03-26 10:35:00
5:55 AM,6.8,1.4,79,30.18,10.0,West,4.6,-,N/A,,Clear,260,2014-03-26 10:55:00
6:15 AM,6.8,1.4,79,30.19,10.0,West,3.5,-,N/A,,Clear,260,2014-03-26 11:15:00
6:35 AM,6.8,1.4,79,30.20,10.0,West,4.6,-,N/A,,Clear,260,2014-03-26 11:35:00
6:55 AM,6.8,1.4,79,30.20,10.0,West,4.6,-,N/A,,Clear,260,2014-03-26 11:55:00
7:15 AM,6.8,1.4,79,30.21,10.0,West,4.6,-,N/A,,Clear,270,2014-03-26 12:15:00
7:35 AM,8.6,1.4,73,30.21,10.0,West,4.6,-,N/A,,Clear,260,2014-03-26 12:35:00
7:55 AM,8.6,3.2,79,30.22,10.0,West,4.6,-,N/A,,Clear,260,2014-03-26 12:55:00
8:15 AM,10.4,3.2,73,30.21,10.0,West,4.6,-,N/A,,Clear,270,2014-03-26 13:15:00
8:35 AM,12.2,3.2,67,30.21,10.0,West,4.6,-,N/A,,Clear,260,2014-03-26 13:35:00
8:55 AM,15.8,3.2,58,30.21,10.0,West,4.6,-,N/A,,Clear,260,2014-03-26 13:55:00
9:15 AM,15.8,3.2,58,30.22,10.0,WSW,8.1,-,N/A,,Clear,240,2014-03-26 14:15:00
9:35 AM,17.6,3.2,53,30.22,10.0,SW,8.1,-,N/A,,Clear,230,2014-03-26 14:35:00
9:55 AM,19.4,3.2,49,30.22,10.0,West,5.8,-,N/A,,Clear,260,2014-03-26 14:55:00
10:15 AM,19.4,5.0,54,30.22,10.0,West,9.2,-,N/A,,Clear,280,2014-03-26 15:15:00
10:35 AM,21.2,5.0,50,30.22,10.0,SW,12.7,17.3,N/A,,Clear,230,2014-03-26 15:35:00
10:55 AM,21.2,3.2,46,30.21,10.0,WSW,8.1,-,N/A,,Clear,250,2014-03-26 15:55:00
11:15 AM,23.0,3.2,43,30.20,10.0,SW,11.5,17.3,N/A,,Clear,220,2014-03-26 16:15:00
11:35 AM,21.2,6.8,54,30.20,10.0,SW,13.8,18.4,N/A,,Clear,220,2014-03-26 16:35:00
11:55 AM,23.0,6.8,50,30.20,10.0,WSW,10.4,16.1,N/A,,Clear,240,2014-03-26 16:55:00
12:15 PM,23.0,6.8,50,30.19,10.0,SSW,10.4,-,N/A,,Clear,210,2014-03-26 17:15:00
12:35 PM,24.8,8.6,50,30.18,10.0,SSW,10.4,18.4,N/A,,Partly Cloudy,210,2014-03-26 17:35:00
12:55 PM,24.8,8.6,50,30.17,10.0,SW,11.5,19.6,N/A,,Mostly Cloudy,220,2014-03-26 17:55:00
1:15 PM,24.8,8.6,50,30.16,10.0,SW,13.8,19.6,N/A,,Mostly Cloudy,220,2014-03-26 18:15:00
1:35 PM,24.8,10.4,54,30.15,10.0,South,12.7,24.2,N/A,,Overcast,190,2014-03-26 18:35:00
1:55 PM,24.8,8.6,50,30.14,10.0,SSW,13.8,18.4,N/A,,Overcast,200,2014-03-26 18:55:00
2:15 PM,26.6,8.6,47,30.14,10.0,SW,13.8,20.7,N/A,,Overcast,220,2014-03-26 19:15:00
2:35 PM,26.6,10.4,51,30.13,10.0,SSW,13.8,20.7,N/A,,Overcast,200,2014-03-26 19:35:00
2:55 PM,26.6,10.4,51,30.12,10.0,SSW,13.8,18.4,N/A,,Overcast,200,2014-03-26 19:55:00
3:15 PM,26.6,12.2,55,30.11,10.0,SW,17.3,-,N/A,,Overcast,230,2014-03-26 20:15:00
3:35 PM,26.6,10.4,51,30.09,10.0,SW,18.4,23.0,N/A,,Overcast,220,2014-03-26 20:35:00
3:55 PM,26.6,10.4,51,30.09,10.0,SSW,18.4,-,N/A,,Overcast,210,2014-03-26 20:55:00
4:15 PM,26.6,10.4,51,30.08,10.0,SSW,16.1,-,N/A,,Overcast,200,2014-03-26 21:15:00
4:35 PM,26.6,12.2,55,30.07,10.0,SSW,12.7,-,N/A,,Overcast,200,2014-03-26 21:35:00
4:55 PM,26.6,12.2,55,30.06,10.0,SW,13.8,20.7,N/A,,Overcast,220,2014-03-26 21:55:00
5:15 PM,28.4,12.2,51,30.06,10.0,SSW,12.7,-,N/A,,Overcast,200,2014-03-26 22:15:00
5:35 PM,26.6,12.2,55,30.04,10.0,South,9.2,-,N/A,,Mostly Cloudy,170,2014-03-26 22:35:00
5:55 PM,26.6,15.8,64,30.04,10.0,South,13.8,-,N/A,,Overcast,170,2014-03-26 22:55:00
6:15 PM,26.6,15.8,64,30.03,10.0,South,15.0,-,N/A,,Overcast,180,2014-03-26 23:15:00
6:35 PM,26.6,15.8,64,30.03,10.0,South,10.4,-,N/A,,Overcast,170,2014-03-26 23:35:00
6:55 PM,26.6,15.8,64,30.02,10.0,South,15.0,19.6,N/A,,Overcast,170,2014-03-26 23:55:00
7:15 PM,26.6,15.8,64,30.01,10.0,South,12.7,-,N/A,,Overcast,190,2014-03-27 00:15:00
7:35 PM,26.6,17.6,69,30.01,10.0,South,11.5,18.4,N/A,,Overcast,180,2014-03-27 00:35:00
7:55 PM,26.6,17.6,69,30.00,10.0,South,11.5,-,N/A,,Overcast,190,2014-03-27 00:55:00
8:15 PM,26.6,17.6,69,30.00,10.0,South,10.4,-,N/A,,Overcast,190,2014-03-27 01:15:00
8:35 PM,26.6,17.6,69,30.00,10.0,South,9.2,16.1,N/A,,Overcast,190,2014-03-27 01:35:00
8:55 PM,26.6,19.4,74,30.00,10.0,South,11.5,17.3,N/A,,Overcast,180,2014-03-27 01:55:00
9:15 PM,26.6,19.4,74,29.99,10.0,South,10.4,-,N/A,,Overcast,190,2014-03-27 02:15:00
9:35 PM,28.4,17.6,64,29.99,10.0,South,8.1,-,N/A,,Overcast,180,2014-03-27 02:35:00
9:55 PM,28.4,19.4,69,29.98,10.0,South,9.2,16.1,N/A,,Overcast,170,2014-03-27 02:55:00
10:15 PM,28.4,21.2,74,29.98,10.0,South,10.4,-,N/A,,Overcast,180,2014-03-27 03:15:00
10:35 PM,28.4,21.2,74,29.97,10.0,South,9.2,-,N/A,,Overcast,170,2014-03-27 03:35:00
10:55 PM,28.4,21.2,74,29.96,10.0,South,10.4,-,N/A,,Overcast,180,2014-03-27 03:55:00
11:15 PM,28.4,21.2,74,29.95,9.0,South,9.2,-,N/A,,Mostly Cloudy,170,2014-03-27 04:15:00
11:35 PM,28.4,23.0,80,29.95,4.0,South,10.4,-,N/A,,Mostly Cloudy,180,2014-03-27 04:35:00
11:55 PM,28.4,23.0,80,29.94,7.0,South,10.4,-,N/A,,Overcast,180,2014-03-27 04:55:00